This is the latest recevied weather packets stored in our database for station/object K8RLH. If no packets are shown the sender has not sent any weather packets the latest 10 day(s).
| Time | Temp. | Humidity | Pressure | Rain* | Wind** | Luminosity | Snow |
|---|---|---|---|---|---|---|---|
| 1777738265 | 15.56° C | 71% | 1015 hPa | 0 mm | - | 219 W/m² | - |
| 1777737963 | 15° C | 70% | 1015.3 hPa | 0 mm | - | 98 W/m² | - |
| 1777737661 | 15.56° C | 69% | 1015.2 hPa | 0 mm | - | 104 W/m² | - |
| 1777737360 | 15.56° C | 68% | 1015.3 hPa | 0 mm | - | 147 W/m² | - |
| 1777737056 | 15.56° C | 70% | 1015.3 hPa | 0 mm | - | 142 W/m² | - |
| 1777736752 | 15.56° C | 72% | 1015.3 hPa | 0 mm | - | 173 W/m² | - |
| 1777736124 | 16.11° C | 73% | 1015.4 hPa | 0 mm | - | 120 W/m² | - |
| 1777735821 | 15.56° C | 75% | 1015.4 hPa | 0 mm | - | 210 W/m² | - |
| 1777735519 | 15.56° C | 75% | 1015.1 hPa | 0 mm | - | 180 W/m² | - |
| 1777735216 | 15.56° C | 76% | 1015.1 hPa | 0 mm | - | 140 W/m² | - |
| 1777734913 | 15.56° C | 76% | 1015.1 hPa | 0 mm | - | 118 W/m² | - |
| 1777734610 | 15.56° C | 74% | 1015 hPa | 0 mm | - | 95 W/m² | - |
| 1777734308 | 15.56° C | 74% | 1015.2 hPa | 0 mm | - | 131 W/m² | - |
| 1777734003 | 15.56° C | 73% | 1015.3 hPa | 0 mm | - | 130 W/m² | - |
| 1777733700 | 15.56° C | 72% | 1015.4 hPa | 0 mm | - | 126 W/m² | - |
| 1777733397 | 15.56° C | 70% | 1015.3 hPa | 0 mm | - | 128 W/m² | - |
| 1777733093 | 15.56° C | 68% | 1015.1 hPa | 0 mm | - | 137 W/m² | - |
| 1777732789 | 16.11° C | 68% | 1014.8 hPa | 0 mm | - | 162 W/m² | - |
| 1777732486 | 16.11° C | 67% | 1014.8 hPa | 0 mm | - | 147 W/m² | - |
| 1777732184 | 15.56° C | 68% | 1014.7 hPa | 0 mm | - | 219 W/m² | - |
| 1777731881 | 15.56° C | 68% | 1014.7 hPa | 0 mm | - | 153 W/m² | - |
| 1777731578 | 15.56° C | 70% | 1014.6 hPa | 0 mm | - | 152 W/m² | - |
| 1777731275 | 15.56° C | 70% | 1014.6 hPa | 0 mm | - | 117 W/m² | - |
| 1777730973 | 15° C | 72% | 1014.9 hPa | 0 mm | - | 91 W/m² | - |
| 1777730671 | 15° C | 71% | 1014.9 hPa | 0 mm | - | 98 W/m² | - |
* Rain latest hour (hover to see other rain measurements)
** Current wind speed in m/s (hover to see current wind gust speed)